sat.trackr.live / text

‹ back to catalog

ONEWEB-0676

NORAD 56712 · 2023-068C

PAYLOAD ACTIVE UNKNOWN

§ Identity

Operator
Country
UK
Launch date
2023-05-20
Launch site
AFWTR
Launch vehicle
Mass (kg)
RCS (m²)

Purposes: comms

External: N2YO · Heavens-Above · Gunter

§ Orbital elements

Epoch: 2026-05-24T22:53:26.180736Z

Period
109.37 min
Inclination
87.9108°
Eccentricity
0.0002300
Mean motion
13.16595970 rev/d
Perigee alt
1,196.0 km
Apogee alt
1,199.5 km
Semi-major
7,575.9 km
B*
-6.9150e-5
RAAN
233.3909°
Arg perigee
95.2876°
Mean anomaly
264.8517°
Rev number
14,864

§ Raw data

ONEWEB-06761 56712U 23068C   26144.95377524 -.00000014  00000+0 -69150-4 0  99902 56712  87.9108 233.3909 0002300  95.2876 264.8517 13.16595970148649

JSON: /api/v1/satellites/56712 · /tle

For live sub-satellite position, see the globe view (requires WebGL).

§ Visibility from observer

Set your observer location to see the next 7 days of passes ≥ 10°. The values pass through the URL so the page stays shareable.

No JS? Fill the form by hand. The geolocation button needs JavaScript.